EW3922 Weather Reports


time (UTC)temp
C
wind
direction
speed
KPH
gust
KPH
rain 1hr
cm
rain 24hr
cm
rain mn
cm
humidity
%
barometer
mb
20260504204532 27 5 0.0 9.7 0.00 0.00 0.00 43 1010.3
20260504203012 27 17 1.6 12.9 0.00 0.00 0.00 44 1010.3
20260504200010 28 262 0.0 12.9 0.00 0.00 0.00 42 1010.7
20260504194520 28 15 0.0 4.8 0.00 0.00 0.00 43 1011.0
20260504193017 28 190 0.0 8.0 0.00 0.00 0.00 43 1011.2
20260504191520 28 101 1.6 9.7 0.00 0.00 0.00 44 1011.3
20260504190011 28 333 0.0 3.2 0.00 0.00 0.00 46 1011.6
20260504184519 27 151 0.0 14.5 0.00 0.00 0.00 45 1011.8
20260504183015 27 235 0.0 4.8 0.00 0.00 0.00 50 1011.8
20260504181526 27 86 0.0 8.0 0.00 0.00 0.00 45 1012.0
20260504180018 27 69 1.6 19.3 0.00 0.00 0.00 45 1012.2
20260504174527 26 212 0.0 6.4 0.00 0.00 0.00 47 1012.3
20260504173017 26 59 0.0 6.4 0.00 0.00 0.00 48 1012.4
20260504171526 26 22 0.0 6.4 0.00 0.00 0.00 51 1012.7
20260504081527 13 49 0.0 0.0 0.00 0.00 0.00 74 1014.0
20260504050025 12 37 0.0 0.0 0.00 0.00 0.00 77 1015.4
20260504044522 12 37 0.0 0.0 0.00 0.00 0.00 77 1015.5
20260504043024 12 37 0.0 0.0 0.00 0.00 0.00 78 1015.6
20260504041510 11 37 0.0 0.0 0.00 0.00 0.00 77 1015.7
20260504040023 12 37 0.0 0.0 0.00 0.00 0.00 78 1015.9
20260504034510 12 37 0.0 0.0 0.00 0.00 0.00 78 1015.8
20260504033019 12 37 0.0 0.0 0.00 0.00 0.00 75 1016.0
20260504031512 12 37 0.0 0.0 0.00 0.00 0.00 75 1016.0
20260504030030 12 37 0.0 0.0 0.00 0.00 0.00 72 1016.2
20260504024511 13 37 0.0 0.0 0.00 0.00 0.00 71 1016.1
20260504023022 13 37 0.0 0.0 0.00 0.00 0.00 68 1016.1
20260504021509 14 37 0.0 0.0 0.00 0.00 0.00 68 1016.1
20260504020020 15 37 0.0 0.0 0.00 0.00 0.00 63 1016.1
20260504014509 15 37 0.0 0.0 0.00 0.00 0.00 62 1015.8
20260504013019 16 37 0.0 0.0 0.00 0.00 0.00 60 1015.8
20260504011511 16 37 0.0 0.0 0.00 0.00 0.00 58 1015.6
20260504010021 17 37 0.0 0.0 0.00 0.00 0.00 57 1015.5
20260504004520 17 37 0.0 0.0 0.00 0.00 0.00 53 1015.7
20260504003022 18 37 0.0 0.0 0.00 0.00 0.00 51 1015.8
20260504001514 18 37 0.0 0.0 0.00 0.00 0.00 51 1015.9
20260504000021 18 37 0.0 0.0 0.00 0.00 0.00 51 1016.2
20260503234525 19 37 0.0 1.6 0.00 0.00 0.00 50 1016.2
20260503233021 19 38 0.0 0.0 0.00 0.00 0.00 50 1016.5
20260503231511 20 84 0.0 1.6 0.00 0.00 0.00 46 1016.6
20260503230006 20 84 0.0 1.6 0.00 0.00 0.00 47 1016.7
20260503224517 20 149 0.0 1.6 0.00 0.00 0.00 45 1016.8
20260503223007 21 90 0.0 1.6 0.00 0.00 0.00 47 1016.8
20260503221519 21 105 0.0 3.2 0.00 0.00 0.00 43 1017.1
20260503220020 21 80 0.0 6.4 0.00 0.00 0.00 43 1017.4
20260503214517 22 360 0.0 6.4 0.00 0.00 0.00 41 1017.6
20260503213011 22 334 0.0 4.8 0.00 0.00 0.00 47 1017.9
20260503211520 22 49 0.0 3.2 0.00 0.00 0.00 44 1018.2
20260503210011 22 5 0.0 4.8 0.00 0.00 0.00 43 1018.4